Regional Weather Roundup
Issued by NWS

Current Version | Previous Version | Text Only | Print | Product List | Glossary On
Versions: 1 2 3 4 5 6 7 8 9 10 11 12 13 14 15 16 17 18 19 20 21 22 23 24 25 26 27 28 29 30 31 32 33 34 35 36 37 38 39 40 41 42 43 44 45 46 47 48 49 50
000
ASCA42 TJSJ 050710
RWRPR
PUERTO RICO/U.S. VIRGIN ISLANDS HOURLY WEATHER ROUNDUP
NATIONAL WEATHER SERVICE SAN JUAN PR
300 AM AST THU MAR 05 2015

PRZ001-004-050800-
PUERTO RICO

CITY           SKY/WX    TMP DP  RH WIND       PRES   REMARKS
SAN JUAN LMM   PTCLDY    75  68  78 E9        30.07F
PONCE          PTCLDY    73  64  73 E9        30.03F
CEIBA          CLEAR     77  64  65 E13G22    30.08F
$$

PRZ006-007-050800-
U.S. VIRGIN ISLANDS

CITY           SKY/WX    TMP DP  RH WIND       PRES   REMARKS
CHRISTIANSTED  CLEAR     73  64  73 E10       30.06
$$

HOURLY WEATHER ROUNDUP FOR THE NEWS MEDIA

CITY           SKY/WX    TMP DP  RH WIND       PRES   REMARKS
ORLANDO        CLEAR     70  65  84 S6        30.08F
NEW YORK       LGT RAIN  40  36  86 W7        29.91S
NEWARK         LGT RAIN  39  37  92 W5        29.90S FOG
CHICAGO        PTCLDY     9  -4  55 NW12      30.36R WCI  -6
HARTFORD       LGT RAIN  36  35  96 CALM      29.86R VSB 3/4
BOSTON         CLOUDY    38  27  64 W8        29.86R WCI  32
DALLAS         HVY SNOW  27  25  93 N20G26    30.36R VSB 1/4 WCI  13
PHILADELPHIA   LGT RAIN  39  36  89 NW6       29.97R WCI  35
LOS ANGELES    PTCLDY    56  48  74 E6        30.16R
WASHINGTON DC  LGT RAIN  38  35  89 N12       29.98R WCI  30


USA.gov is the U.S. government's official web portal to all federal, state and local government web resources and services.